This demonstration page uses our WeatherBlox Daily Observations layout. Learn more.

Left ArrowRight Arrow

39.51506, -84.39828

Hourly Observations for September 7, 2021

Temp ( °F °C ) Dew Point ( °F °C ) Humidity (%) Winds ( mph kmh ) Pressure ( in mb ) Visibility ( mi km ) Precip ( " mm )
12:15 am 00:15 Mostly Cloudy 68 20.1 64 17.5 85 85 SW 5 7 29.96 1015 10 16 N/A
12:35 am 00:35 Cloudy 69 20.5 64 17.7 84 84 WNW 3 6 29.96 1015 10 16 N/A
12:55 am 00:55 Cloudy 70 20.9 64 17.5 81 81 W 3 6 29.96 1015 10 16 N/A
1:15 am 01:15 Mostly Cloudy 68 20.2 64 17.9 87 87 SSW 3 6 29.96 1015 10 16 N/A
1:35 am 01:35 Mostly Cloudy 67 19.4 66 18.7 96 96 N N/A 29.97 1015 10 16 N/A
1:55 am 01:55 Cloudy 66 19 66 19 100 100 SSW 3 6 29.97 1015 10 16 N/A
2:15 am 02:15 Cloudy 66 19 N/A N/A W 3 6 29.96 1014 10 16 N/A
2:35 am 02:35 Cloudy 67 19.7 67 19.3 98 98 N N/A 29.96 1014 10 16 N/A
2:55 am 02:55 Cloudy 67 19.4 67 19.3 99 99 WSW 3 6 29.96 1014 10 16 N/A
3:15 am 03:15 Partly Cloudy 66 19.1 65 18.5 96 96 SW 3 6 29.96 1014 10 16 N/A
3:35 am 03:35 Partly Cloudy 66 18.9 64 17.8 93 93 WSW 5 7 29.96 1014 10 16 N/A
3:55 am 03:55 Partly Cloudy 65 18.1 64 17.9 99 99 N N/A 29.96 1015 10 16 N/A
4:15 am 04:15 Clear 64 17.9 63 17.4 97 97 SW 5 7 29.96 1015 10 16 N/A
4:35 am 04:35 Clear 64 18 N/A N/A SW 5 7 29.96 1015 10 16 N/A
4:55 am 04:55 Clear 63 17 63 17 100 100 N N/A 29.96 1015 10 16 N/A
5:15 am 05:15 Clear 63 17 N/A N/A N N/A 29.97 1015 10 16 N/A
5:35 am 05:35 Clear 63 17 N/A N/A WSW 3 6 29.97 1015 10 16 N/A
5:55 am 05:55 Clear 61 16 N/A N/A SW 5 7 29.97 1015 10 16 N/A
6:15 am 06:15 Clear 61 16 N/A N/A SW 3 6 29.97 1015 10 16 N/A
6:35 am 06:35 Clear 63 17 N/A N/A SW 5 7 29.98 1015 10 16 N/A
6:55 am 06:55 Clear 61 16 N/A N/A SW 6 9 29.98 1015 10 16 N/A
7:15 am 07:15 Partly Cloudy 61 16 N/A N/A SW 5 7 29.98 1015 10 16 N/A
7:35 am 07:35 Partly Cloudy 63 17 N/A N/A SW 5 7 29.99 1016 10 16 N/A
7:55 am 07:55 Partly Cloudy 64 17.7 63 17.3 98 98 SSW 5 7 29.99 1016 10 16 N/A
8:15 am 08:15 Sunny 66 19 64 17.7 92 92 SW 6 9 29.99 1015 10 16 N/A
8:35 am 08:35 Sunny 68 19.8 64 17.5 87 87 SW 7 11 29.99 1015 10 16 N/A
8:55 am 08:55 Sunny 69 20.6 63 17.1 80 80 SW 7 11 29.98 1015 10 16 N/A
9:15 am 09:15 Sunny 70 21.3 63 17 77 77 SW 7 11 29.98 1015 10 16 N/A
9:35 am 09:35 Sunny 72 22.1 63 17.2 74 74 SSW 8 13 29.98 1015 10 16 N/A
9:55 am 09:55 Sunny 73 22.7 63 17.2 71 71 SSW 8 13 29.98 1015 10 16 N/A
10:15 am 10:15 Sunny 74 23.5 64 17.8 70 70 S 7 11 29.98 1015 10 16 N/A
10:35 am 10:35 Sunny 76 24.4 64 17.8 67 67 SW 8 13 29.97 1015 10 16 N/A
10:55 am 10:55 Sunny 77 24.9 64 18 66 66 SSW 8 13 29.97 1015 10 16 N/A
11:15 am 11:15 Sunny 78 25.5 65 18.1 64 64 SW 8 13 29.96 1015 10 16 N/A
11:35 am 11:35 Sunny 79 26.2 64 18 61 61 SW 13 20 29.96 1015 10 16 N/A
11:55 am 11:55 Sunny 80 26.5 64 17.8 59 59 SSW 10 17 29.95 1014 10 16 N/A
12:15 pm 12:15 Sunny 81 27 65 18.4 59 59 SSW 9 15 29.95 1014 10 16 N/A
12:35 pm 12:35 Sunny 81 27.2 64 18 57 57 SSW 10 17 29.95 1014 10 16 N/A
12:55 pm 12:55 Sunny 82 27.9 65 18.2 56 56 SSW 13 20 29.94 1014 10 16 N/A
1:15 pm 13:15 Sunny 82 28 63 17.3 52 52 SW 13 20 29.93 1013 10 16 N/A
1:35 pm 13:35 Sunny 83 28.5 64 17.9 53 53 SSW 15 24 29.92 1013 10 16 N/A
1:55 pm 13:55 Partly Cloudy 84 28.7 63 17.3 50 50 SW 10 17 29.90 1013 10 16 N/A
2:15 pm 14:15 Mostly Cloudy 82 27.8 62 16.8 51 51 SW 10 17 29.90 1012 10 16 N/A
2:35 pm 14:35 Mostly Cloudy 84 29 64 17.5 50 50 SW 15 24 29.88 1012 10 16 N/A
2:55 pm 14:55 Partly Cloudy 84 28.8 62 16.6 48 48 SW 15 24 29.87 1012 10 16 N/A
3:15 pm 15:15 Partly Cloudy 84 29.1 62 16.7 47 47 SSW 16 26 29.86 1011 10 16 N/A
3:35 pm 15:35 Sunny 84 29.1 61 16.3 46 46 SW 16 26 29.85 1011 10 16 N/A
3:55 pm 15:55 Sunny 84 29 60 15.7 44 44 SW 16 26 29.83 1010 10 16 N/A
4:15 pm 16:15 Sunny 85 29.2 60 15.3 43 43 SW 15 24 29.81 1010 10 16 N/A
4:35 pm 16:35 Sunny 84 29.1 59 14.8 42 42 SW 16 26 29.81 1010 10 16 N/A
4:55 pm 16:55 Sunny 84 29.1 60 15.6 44 44 SW 17 28 29.81 1010 10 16 N/A
5:15 pm 17:15 Sunny 84 28.9 59 14.8 42 42 SW 14 22 29.80 1009 10 16 N/A
5:35 pm 17:35 Sunny 84 28.8 59 15.2 44 44 SW 14 22 29.80 1009 10 16 N/A
5:55 pm 17:55 Sunny 84 28.7 60 15.5 45 45 SSW 14 22 29.80 1009 10 16 N/A
6:15 pm 18:15 Sunny 83 28.4 59 15.1 44 44 SSW 15 24 29.81 1009 10 16 N/A
6:35 pm 18:35 Sunny 82 27.8 59 15.2 46 46 SW 12 19 29.80 1009 10 16 N/A
6:55 pm 18:55 Sunny 80 26.7 59 15.2 49 49 SW 12 19 29.80 1009 10 16 N/A
7:15 pm 19:15 Sunny 80 26.4 60 15.5 51 51 SSW 9 15 29.80 1009 10 16 N/A
7:35 pm 19:35 Sunny 78 25.8 60 15.5 53 53 SSW 8 13 29.80 1009 10 16 N/A
7:55 pm 19:55 Sunny 78 25.6 59 15 52 52 SSW 9 15 29.81 1010 10 16 N/A
8:15 pm 20:15 Clear 75 24.1 60 15.8 60 60 SW 7 11 29.83 1010 10 16 N/A
8:35 pm 20:35 Clear 74 23.1 61 16.2 65 65 SW 6 9 29.83 1010 10 16 N/A
8:55 pm 20:55 Clear 72 22.3 62 16.6 70 70 SSW 8 13 29.83 1010 10 16 N/A
9:15 pm 21:15 Clear 75 24 59 14.9 57 57 SSW 8 13 29.82 1010 10 16 N/A
9:35 pm 21:35 Clear 75 23.8 59 14.8 57 57 SSW 7 11 29.82 1010 10 16 N/A
9:55 pm 21:55 Clear 73 22.9 60 15.5 63 63 SSW 6 9 29.83 1010 10 16 N/A
10:15 pm 22:15 Clear 75 23.8 59 15 58 58 SSW 10 17 29.81 1009 10 16 N/A
10:35 pm 22:35 Clear 75 23.9 59 14.9 57 57 SSW 10 17 29.81 1009 10 16 N/A
10:55 pm 22:55 Clear 74 23.4 60 15.4 61 61 WSW 8 13 29.82 1010 10 16 N/A
11:15 pm 23:15 Clear 73 22.9 60 15.4 63 63 SSW 7 11 29.82 1010 10 16 N/A
11:35 pm 23:35 Clear 73 22.8 60 15.6 64 64 SW 6 9 29.82 1010 10 16 N/A
11:55 pm 23:55 Clear 72 22 61 16.2 70 70 WSW 6 9 29.82 1010 10 16 N/A

Powered by AerisWeather